STARLINK-31687, 59798

Orbit data source: Space-Track

STARLINK-31687, 59798 is a payload satellite owned by SpaceX/Seattle (US) in LEO that was launched on Sat, 18 May 2024 UTC via an FALCON 9 launch vehicle from the Air Force Eastern Test Range (AFETR). Payload-class satellites include a variety of spacecraft equipped with specific instruments for various scientific and technological missions. These include communications satellites like Starlink; space stations such as the ISS; scientific satellites like the Hubble; Earth observation satellites from companies like Planet Labs, Umbra, and HawkEye 360; GPS; miniature CubeSats for education and research; and military/defense satellites.

Loading next visibility...
Identifier
59798, 2024-093S
Orbit
LEO
Country
Flag of USUS
Related business
Manufacturer
SpaceX/Seattle
Mission
Operational Commercial Communications
Bus & Motor
STARLINK V2M, Unknown motor
Mass
730 kg wet, ~700 kg dry
Launch date (UTC)
2024-05-18 (2 years ago)
Launch vehicle
FALCON 9
Launch site
Air Force Eastern Test Range (AFETR)
Object type
Payload
Rocket body
Debris
Shape & HBR
Box + 2 Pan, 17.7 m
Radar Cross Section
33.884 m², Large (>1 m²)

Expand to show TLE details & history
Last TLE update: 1 day ago

TLE from 1 day ago
0 STARLINK-31687
1 59798U 24093S   26073.02220133  .00001454  00000-0  62333-4 0  9992
2 59798  43.0009 184.8032 0000644 257.6450 102.4330 15.27577131103359
Epoch: 2026-03-14T00:31Z
TLE epoch observation values (Epoch: 2026-03-14T00:31:58.194Z)
Latitude
-0.00001°
Longitude
5.16136°
Altitude
482.928 km
Speed
7.626 km/s
True Right ascension
12h 19m 12s
True Declination
0° 00' 00"
Sunlit
Object was in full shadow at epoch
Visualization orbit readout
Latitude
Unknown
Longitude
Unknown
Altitude
Unknown
Speed
Unknown
Apparent Right ascension
Unknown
Apparent Declination
Unknown
Sunlit
N/A
Visualization observer readout
Local Sidereal Time
05:36:12
Azimuth
Unknown
Elevation
Unknown
Doppler factor
Unknown
Orbital elements
Apogee altitude
485.445 km
Perigee altitude
484.561 km
Semi-major axis
6,863.14 km
Eccentricity
0.00006
Inclination
43.0009°
RAAN
184.8032°
Arg. of periapsis
257.645°
True anomaly
102.44021°
Mean anomaly
102.433°
Eccentric anomaly
102.4366°
Mean motion
3.81732 °/min
Orbital period
94.31 mins
BSTAR
0.000062333
Loading maneuver chart data...
Computing Atmospheric mass density...
Loading historical data...
Loading historical data...
Loading historical data...
Loading historical data...
Loading historical data...
Loading historical data...
Loading historical data...

Documentation

Showing up to 5 results
|